Location: G�migny
(47.9646°N, 1.6950°E)
Time: 02:28:16
(UTC+00:00)

STARLINK-32 - Pass Details

Date: 23 October 2019
Orbit: 548 x 552 km, 53.0° (Epoch: 18 November)

Event Time Altitude Azimuth Distance (km) Brightness Sun altitude
Rises 18:01:38 0° 287° (WNW) 2,717 8.6 -12.5°
Reaches altitude 10° 18:03:58 10° 295° (WNW) 1,823 7.3 -12.9°
Maximum altitude 18:07:55 42° 7° (N) 789 4.3 -13.6°
Enters shadow 18:10:12 22° 67° (ENE) 1,234 4.8 -13.9°
